Wind_Speed
22 23 24 24 24 25 26 26 27 28 29 29 30 30 30 30 31 31 31 32 32 33 33 33 32 32 31 31 31 30 30 31 31 31 30 30 30 30 29 28 28 28 28
20 21 23 23 24 25 26 27 28 28 29 30 31 31 31 31 31 31 32 32 32 32 32 33 32 32 32 31 31 30 31 32 32 32 32 31 31 31 30 30 29 30 30
21 22 23 23 23 24 26 27 28 28 29 30 31 31 32 33 33 32 32 33 33 34 33 33 33 33 32 31 31 31 31 31 32 32 32 32 32 32 31 32 31 31 32
21 21 22 23 23 24 25 26 26 27 28 29 30 31 32 33 33 33 33 33 34 33 34 34 34 32 32 31 32 32 32 32 33 33 33 33 33 33 33 33 33 33 33
20 20 21 22 23 24 24 24 25 25 26 28 29 29 30 31 32 31 32 32 32 33 34 34 34 34 32 32 32 32 32 33 33 33 33 33 33 33 33 33 33 34 34
19 19 20 22 23 23 24 23 24 25 26 27 27 28 29 30 30 30 31 32 32 33 34 34 34 33 33 33 33 33 33 33 32 33 35 35 35 33 33 32 32 33 34
19 20 20 21 21 22 22 22 23 24 24 26 26 26 27 27 28 28 29 30 31 32 32 32 32 32 32 33 33 33 33 33 33 32 34 35 35 33 33 33 33 33 33
19 20 20 20 20 21 21 21 21 22 23 24 25 26 26 26 26 27 27 28 28 29 30 30 30 31 31 31 32 33 33 33 33 33 32 33 33 32 31 32 32 33 34
19 19 20 21 21 21 22 21 22 22 22 22 22 22 23 24 25 25 25 25 26 26 26 27 28 29 29 29 29 30 30 31 32 32 32 32 32 32 31 31 32 32 32
20 20 20 21 22 22 21 21 22 21 21 21 21 21 22 22 22 23 24 25 25 26 26 26 26 26 27 27 27 28 29 29 30 30 31 31 31 31 30 30 31 32 33
21 21 22 22 23 22 22 22 22 21 21 21 21 22 22 22 22 23 23 23 24 23 23 24 24 25 25 25 26 27 28 29 29 28 29 30 30 30 30 30 30 31 31
23 23 24 24 24 23 23 22 22 22 22 22 22 23 23 23 23 23 23 23 23 22 22 23 23 24 24 24 25 26 26 26 27 27 28 28 29 28 29 29 28 29 29
24 25 25 25 25 24 24 23 23 23 23 23 23 24 24 23 23 23 23 23 23 22 22 22 22 23 23 23 23 24 24 24 24 24 24 25 26 27 27 26 26 25 25
26 26 26 26 26 25 25 25 25 24 24 25 24 24 24 24 23 23 23 23 23 23 22 23 23 22 22 22 22 22 23 22 22 22 22 22 23 24 24 24 24 24 24
26 26 26 26 26 26 26 26 26 26 26 26 25 25 24 24 24 24 23 23 23 24 24 23 23 22 21 21 20 20 21 21 21 21 20 20 21 22 21 22 22 23 23
27 27 26 27 27 27 26 26 26 26 26 26 25 25 24 24 24 24 24 23 23 23 23 23 22 21 21 20 19 19 19 19 19 19 20 19 19 20 20 20 19 19 20
26 26 26 26 27 26 27 27 27 26 26 25 24 24 23 23 23 23 23 23 23 23 22 22 21 20 20 20 19 18 18 18 18 18 19 19 19 19 19 18 19 18 19
26 26 26 26 26 26 26 26 26 25 24 23 22 21 21 21 21 21 21 21 22 21 20 20 18 18 18 18 18 17 17 17 17 18 19 18 17 17 17 17 17 18 18
26 26 26 26 26 25 25 24 24 23 22 21 20 20 19 19 19 18 18 18 17 17 17 17 16 16 15 16 15 15 14 14 14 14 14 14 14 15 15 16 16 16 16
24 24 24 24 24 24 23 23 22 20 20 19 18 18 17 17 16 16 15 15 14 14 14 13 13 13 13 12 11 11 12 12 11 10 10 10 10 11 12 13 14 14 14
23 22 22 22 22 21 21 20 19 18 17 16 16 15 14 13 13 12 12 11 11 10 10 9 9 9 9 9 8 7 7 8 8 8 9 10 10 10 10 11 12 13 13
21 20 20 20 19 19 18 17 16 15 14 13 12 12 11 10 10 9 8 7 8 9 9 8 8 8 7 7 8 7 6 6 6 7 7 8 8 9 10 10 10 10 10
19 19 19 18 17 16 15 14 13 12 11 10 10 9 9 8 8 7 6 6 7 7 7 7 6 4 4 5 7 7 6 7 7 7 6 6 6 7 8 8 8 8 8
17 16 16 15 14 13 12 11 11 9 8 7 7 6 5 5 5 5 5 5 5 5 5 5 5 4 4 5 4 5 5 5 5 5 5 5 5 5 5 6 6 7 7
14 14 13 12 11 10 9 8 7 6 5 4 3 3 3 3 3 3 3 3 3 3 3 3 4 4 4 4 4 4 3 3 3 2 2 2 3 3 4 4 5 5 5
13 12 11 10 8 7 7 6 5 3 2 1 1 1 2 2 2 2 2 2 3 2 2 3 3 4 3 3 4 3 2 2 1 0 0 1 2 2 3 3 3 3 3
Wind_Direction
276 278 280 280 280 280 279 276 275 273 271 270 269 269 269 269 269 269 269 267 268 268 267 266 266 267 268 268 267 265 261 259 257 256 256 257 258 259 259 259 260 261 261
277 277 280 280 280 280 278 276 275 273 271 270 270 270 269 270 269 269 269 269 269 268 267 267 267 269 268 266 266 265 263 260 257 257 258 257 258 259 261 260 261 262 261
279 279 281 280 280 281 280 279 276 273 271 270 269 270 270 269 269 269 269 269 268 268 268 267 267 267 267 267 265 263 263 261 258 259 259 259 258 260 261 262 260 260 260
281 282 281 280 281 283 283 281 278 275 273 271 271 271 270 270 270 270 270 270 268 268 267 266 265 267 268 266 265 262 262 261 258 259 260 261 260 262 262 263 261 260 261
285 284 283 282 283 284 285 283 278 276 275 273 273 273 272 270 271 270 270 270 269 267 267 267 266 266 266 265 264 263 262 261 259 257 259 260 260 261 262 263 263 262 262
288 289 288 288 286 286 286 284 281 278 277 275 274 274 274 273 271 271 270 270 269 269 268 268 267 265 264 264 264 263 262 262 261 259 259 261 261 262 261 261 263 264 263
292 294 294 292 291 290 289 286 284 280 278 276 275 275 275 275 274 273 272 271 271 269 269 268 267 265 263 262 262 262 260 260 261 261 261 261 261 261 262 262 261 263 264
295 296 295 293 292 293 292 290 287 284 282 279 278 278 277 276 276 275 274 273 272 271 270 268 267 266 264 263 262 261 261 261 260 261 262 262 262 260 261 261 261 262 263
297 298 297 296 295 295 293 291 292 289 287 285 282 280 280 278 277 277 275 274 273 273 271 270 268 266 266 265 263 261 261 261 261 260 261 262 261 260 261 260 260 261 264
298 300 301 299 298 297 296 293 293 292 290 288 284 283 283 280 278 279 277 276 276 275 272 272 269 267 267 266 265 264 264 263 262 261 262 263 262 262 263 262 261 262 263
299 300 300 301 300 298 296 294 294 293 292 290 287 284 283 281 282 282 281 278 277 277 275 273 271 269 269 268 267 267 265 264 263 263 263 263 263 263 264 264 262 264 264
298 298 299 300 299 298 297 296 294 292 291 291 289 287 284 282 283 283 283 280 278 277 277 276 275 272 270 269 268 266 266 265 265 264 263 262 263 264 264 265 267 267 267
297 297 299 299 298 297 296 295 293 292 291 290 288 287 285 283 282 282 283 281 278 277 277 276 275 272 271 271 268 267 266 265 265 265 263 261 262 262 266 268 268 271 271
296 297 298 298 297 295 295 294 292 292 291 290 288 287 285 283 281 280 281 280 279 278 277 277 276 274 272 271 269 267 267 265 263 264 263 263 263 264 267 269 269 269 271
298 298 297 296 295 295 295 294 293 291 290 289 288 286 285 283 282 280 280 279 278 276 275 276 275 274 273 272 271 270 269 265 263 261 263 266 264 264 265 267 269 271 274
298 298 296 295 295 294 294 294 294 293 291 289 287 286 285 283 282 280 277 276 274 274 273 273 273 273 274 272 272 271 271 266 262 259 260 261 261 262 264 266 268 272 273
299 298 297 295 295 294 294 295 294 294 291 289 287 286 283 282 281 279 277 275 274 274 273 271 269 269 270 270 268 269 269 264 258 256 257 257 259 261 264 267 269 270 272
299 298 298 297 297 296 296 295 295 293 291 288 287 285 283 282 281 279 278 276 275 273 271 270 268 269 270 268 265 265 266 263 261 259 257 257 257 260 261 263 267 271 273
299 299 298 298 297 297 297 296 296 293 291 288 286 284 283 282 282 280 278 277 275 271 271 268 266 265 264 264 262 260 258 256 257 254 254 253 251 255 259 262 265 268 270
302 300 300 299 298 298 297 296 295 292 291 288 284 284 282 280 279 278 275 273 270 268 268 264 262 260 258 257 255 249 246 249 250 249 249 247 252 256 259 261 263 268 273
306 303 302 302 302 300 298 296 295 292 290 286 282 282 278 275 274 273 270 266 263 262 262 258 253 250 248 245 240 241 241 245 246 249 254 257 263 265 266 268 272 273 276
309 309 308 307 305 302 299 297 296 295 290 286 283 279 274 269 267 265 263 257 256 256 252 250 243 242 241 234 225 228 234 244 246 248 257 266 267 270 272 275 279 281 282
314 313 312 311 308 304 301 299 299 298 292 287 283 277 269 262 259 257 260 259 257 253 245 235 223 223 229 222 219 230 243 246 248 254 264 263 265 274 275 276 280 285 290
320 320 319 317 314 312 308 305 304 303 296 284 278 275 260 246 248 249 257 257 252 244 234 222 217 214 202 203 205 221 234 235 238 245 252 255 261 270 274 281 288 295 299
326 326 327 325 322 319 314 310 309 305 296 280 268 257 239 231 231 227 230 229 215 201 194 195 197 198 189 194 192 191 199 213 220 244 262 262 273 289 298 304 309 310 310
336 338 339 338 337 334 330 327 322 314 302 267 243 226 214 197 176 179 178 165 157 164 167 172 172 168 166 165 174 175 181 209 203 209 359 336 325 317 314 322 335 339 338
Height
5825 5825 5824 5824 5823 5823 5823 5823 5823 5824 5825 5826 5827 5827 5828 5829 5829 5830 5830 5831 5832 5832 5833 5834 5834 5835 5837 5837 5838 5839 5840 5842 5844 5845 5847 5848 5850 5851 5852 5853 5854 5856 5857
5821 5821 5820 5820 5820 5819 5819 5818 5818 5818 5818 5819 5820 5820 5821 5822 5822 5823 5823 5823 5825 5825 5826 5826 5827 5829 5830 5830 5830 5832 5834 5836 5837 5839 5839 5841 5843 5845 5846 5847 5849 5850 5850
5817 5817 5817 5816 5815 5814 5813 5813 5812 5812 5812 5813 5813 5814 5814 5814 5815 5815 5816 5817 5817 5818 5819 5820 5821 5822 5823 5824 5825 5826 5827 5829 5830 5831 5833 5834 5836 5837 5839 5840 5842 5842 5844
5813 5813 5812 5811 5810 5810 5808 5807 5806 5806 5806 5806 5807 5807 5807 5807 5808 5808 5809 5809 5810 5811 5811 5812 5813 5814 5816 5817 5818 5819 5820 5821 5823 5824 5826 5828 5829 5831 5832 5834 5834 5835 5836
5810 5809 5808 5807 5806 5805 5803 5802 5801 5801 5800 5800 5800 5800 5800 5800 5801 5801 5802 5802 5802 5803 5804 5805 5805 5806 5808 5809 5811 5812 5813 5814 5815 5817 5818 5820 5821 5823 5825 5826 5828 5828 5829
5807 5806 5804 5803 5802 5800 5799 5797 5796 5795 5795 5794 5794 5794 5794 5793 5793 5794 5794 5795 5795 5795 5796 5797 5798 5799 5801 5802 5803 5804 5805 5807 5808 5810 5812 5813 5814 5816 5817 5818 5820 5820 5822
5804 5802 5800 5799 5797 5795 5794 5792 5791 5790 5789 5788 5788 5788 5787 5787 5787 5787 5787 5787 5788 5788 5788 5789 5790 5791 5793 5794 5795 5796 5798 5799 5801 5802 5804 5805 5806 5808 5809 5810 5812 5813 5814
5800 5798 5796 5794 5793 5791 5789 5788 5786 5785 5784 5783 5782 5782 5781 5781 5781 5781 5781 5781 5781 5781 5781 5782 5783 5784 5785 5786 5787 5789 5790 5792 5793 5795 5796 5798 5799 5800 5801 5803 5804 5805 5806
5796 5794 5792 5790 5789 5787 5785 5783 5782 5780 5779 5778 5777 5776 5776 5775 5775 5774 5774 5774 5774 5774 5775 5775 5776 5777 5778 5779 5780 5781 5783 5784 5785 5787 5789 5790 5792 5793 5794 5796 5797 5799 5799
5793 5791 5788 5786 5784 5782 5780 5778 5777 5775 5774 5773 5772 5771 5770 5770 5769 5769 5768 5768 5768 5768 5768 5769 5769 5770 5771 5772 5773 5774 5775 5776 5778 5780 5781 5783 5784 5785 5787 5788 5790 5791 5792
5788 5786 5784 5782 5779 5777 5775 5774 5772 5770 5769 5768 5767 5766 5765 5764 5764 5763 5763 5762 5762 5762 5762 5762 5762 5763 5764 5765 5766 5767 5768 5769 5771 5772 5774 5775 5777 5778 5780 5781 5782 5783 5785
5783 5782 5779 5777 5775 5772 5770 5768 5767 5765 5764 5762 5761 5760 5759 5759 5758 5758 5757 5756 5756 5756 5756 5756 5756 5757 5758 5758 5759 5760 5761 5762 5763 5765 5766 5768 5770 5771 5773 5774 5775 5776 5777
5778 5776 5774 5772 5769 5767 5765 5763 5761 5760 5758 5757 5756 5754 5754 5753 5752 5752 5751 5751 5751 5750 5750 5750 5750 5751 5751 5752 5752 5753 5754 5755 5757 5758 5759 5761 5763 5765 5766 5767 5768 5770 5770
5773 5771 5768 5766 5763 5761 5759 5757 5755 5753 5752 5750 5749 5748 5747 5746 5746 5746 5745 5745 5745 5744 5744 5744 5744 5745 5745 5745 5746 5747 5748 5749 5750 5752 5753 5755 5757 5759 5760 5761 5762 5763 5764
5767 5765 5762 5759 5757 5755 5753 5750 5748 5747 5745 5744 5742 5741 5740 5740 5739 5739 5739 5738 5738 5738 5738 5738 5738 5738 5739 5739 5740 5741 5742 5743 5744 5746 5748 5749 5751 5753 5754 5755 5757 5757 5758
5761 5758 5756 5753 5750 5748 5746 5744 5742 5740 5738 5737 5735 5734 5733 5733 5732 5732 5732 5732 5731 5731 5731 5732 5732 5732 5733 5734 5734 5736 5737 5738 5739 5741 5743 5744 5746 5747 5749 5750 5751 5752 5753
5754 5752 5749 5746 5743 5741 5739 5737 5735 5733 5731 5730 5728 5727 5726 5726 5725 5725 5725 5725 5725 5725 5725 5725 5726 5727 5728 5728 5729 5731 5732 5733 5734 5736 5737 5739 5740 5742 5743 5744 5746 5746 5747
5748 5745 5742 5739 5737 5734 5732 5730 5728 5726 5724 5723 5722 5721 5720 5720 5719 5719 5719 5719 5718 5719 5719 5720 5720 5721 5722 5723 5725 5726 5727 5728 5730 5731 5733 5734 5736 5737 5739 5740 5741 5741 5742
5741 5738 5735 5733 5730 5728 5725 5723 5721 5719 5718 5717 5715 5715 5714 5714 5713 5713 5713 5713 5713 5714 5714 5715 5716 5717 5718 5719 5720 5721 5723 5724 5726 5727 5728 5730 5731 5733 5734 5735 5736 5737 5738
5734 5732 5729 5726 5724 5721 5719 5717 5715 5713 5712 5711 5710 5709 5709 5709 5709 5709 5709 5709 5709 5710 5710 5711 5712 5713 5714 5715 5716 5718 5720 5721 5723 5724 5725 5727 5728 5729 5730 5731 5732 5733 5734
5728 5726 5723 5720 5718 5715 5713 5711 5709 5708 5707 5706 5705 5705 5704 5704 5704 5704 5705 5705 5706 5707 5707 5708 5709 5711 5712 5713 5714 5716 5718 5719 5720 5722 5723 5724 5725 5726 5727 5728 5729 5729 5730
5723 5720 5718 5715 5712 5710 5708 5706 5704 5703 5702 5702 5701 5701 5701 5701 5701 5702 5702 5703 5704 5704 5705 5706 5707 5709 5710 5711 5713 5715 5716 5718 5719 5720 5721 5722 5723 5724 5724 5725 5726 5726 5726
5718 5716 5713 5710 5708 5705 5704 5702 5701 5699 5699 5698 5698 5698 5698 5699 5700 5700 5701 5701 5702 5703 5704 5705 5706 5707 5709 5710 5712 5714 5715 5716 5718 5718 5719 5720 5721 5721 5722 5723 5723 5723 5723
5715 5712 5709 5707 5704 5702 5700 5699 5698 5697 5696 5696 5696 5696 5697 5697 5698 5699 5700 5700 5701 5701 5703 5704 5705 5707 5708 5710 5711 5713 5714 5715 5716 5717 5717 5718 5719 5719 5720 5720 5720 5721 5721
5711 5709 5706 5704 5702 5700 5699 5698 5697 5696 5695 5695 5695 5696 5696 5697 5698 5698 5699 5700 5701 5701 5703 5704 5705 5706 5708 5709 5710 5711 5713 5714 5715 5716 5716 5717 5717 5718 5718 5718 5719 5719 5719
5710 5707 5705 5703 5701 5699 5698 5697 5696 5696 5695 5695 5695 5696 5696 5697 5698 5699 5699 5700 5701 5702 5703 5704 5705 5706 5707 5708 5710 5711 5712 5713 5714 5715 5716 5716 5716 5717 5717 5718 5718 5718 5718